Theta_e
315 314 315 314 315 315 314 314 315 316 316 317 318 320 321 321 321 319 318 316 316 316 316 316 316 316 310 300 299 315 328 326 317 311 304 303 302 302 299 300 299 296 298 301 304 308 309
314 313 314 313 314 314 315 316 315 315 315 315 317 318 320 320 320 319 318 316 315 315 315 316 316 315 305 294 308 317 317 311 309 306 304 304 305 305 303 301 299 301 307 307 308 308 308
314 314 314 315 313 312 313 314 315 314 315 315 316 317 318 319 319 319 318 316 315 315 315 315 315 310 304 298 312 310 310 310 308 308 304 305 307 305 304 301 303 303 304 307 307 307 306
314 314 314 314 314 313 313 312 314 313 314 315 315 315 315 316 317 317 317 315 314 315 315 315 314 308 300 308 311 312 313 312 311 309 306 307 308 305 303 305 302 301 301 299 305 306 304
312 312 314 313 313 312 312 312 313 313 313 314 314 314 314 314 315 315 315 314 314 315 315 314 308 307 298 310 305 309 313 310 309 308 308 308 307 303 303 299 297 296 294 295 300 306 303
309 311 312 313 313 312 312 312 312 312 312 312 313 313 313 314 314 315 313 313 313 312 312 312 309 301 302 301 308 312 313 311 308 306 305 306 303 300 299 297 290 293 293 295 296 302 303
308 308 311 312 312 313 312 312 312 311 312 312 312 313 314 314 314 315 311 308 301 302 306 303 302 300 298 307 313 309 310 309 309 306 300 303 300 296 298 298 297 296 295 294 296 301 300
309 310 310 310 311 311 313 311 312 311 312 312 312 312 313 314 316 313 310 303 302 305 299 306 305 304 306 310 305 308 309 304 304 298 302 300 297 300 300 299 298 297 295 294 297 299 299
309 309 309 309 309 310 311 312 311 311 311 311 311 311 312 312 314 311 308 305 311 311 299 301 304 304 305 308 303 305 305 304 300 298 299 297 298 301 300 299 296 296 295 295 295 298 298
309 309 309 309 309 309 310 311 311 311 310 310 310 309 310 312 308 307 305 311 312 311 292 294 299 304 308 308 302 309 305 305 301 298 299 298 300 299 299 297 298 293 298 297 296 295 291
308 308 308 308 308 307 307 309 310 310 310 310 310 309 310 312 306 304 308 312 313 308 280 296 302 311 308 302 302 303 305 305 299 298 299 297 297 298 297 298 299 297 299 297 297 294 294
307 308 308 308 308 307 307 307 309 309 309 309 309 309 309 309 310 309 312 313 311 293 281 291 302 300 301 300 299 301 302 306 304 300 299 297 302 300 300 300 300 300 298 296 295 294 288
307 307 307 307 307 307 307 307 308 308 308 309 309 310 309 312 305 310 312 309 293 285 295 292 297 298 297 295 296 298 297 297 296 292 293 296 297 301 302 298 300 298 294 289 287 287 286
307 307 307 307 307 307 307 306 306 307 308 308 308 308 308 308 312 310 311 298 286 291 291 298 297 296 293 295 295 296 294 294 295 295 291 290 288 297 301 300 297 296 295 290 282 284 287
308 307 307 307 307 307 307 306 306 307 307 307 307 305 304 306 311 310 302 289 288 292 296 295 295 292 292 294 295 295 294 294 296 297 292 290 290 298 300 301 301 296 293 296 289 287 287
307 307 307 307 307 307 307 306 306 307 307 307 301 300 299 306 310 305 295 290 294 298 300 300 291 294 290 291 292 293 292 295 295 298 300 296 290 297 299 302 300 297 299 291 290 284 282
306 307 307 307 306 306 306 306 306 306 307 306 299 293 300 306 308 298 288 290 295 300 302 297 296 295 293 291 293 291 292 295 297 295 298 296 295 292 298 297 296 295 294 292 293 290 285
304 305 305 306 306 306 306 306 305 306 306 303 296 286 299 305 291 293 289 294 297 297 302 300 300 298 297 295 292 292 292 296 297 298 295 299 295 289 293 297 299 298 296 295 291 287 288
303 304 304 305 306 306 306 306 305 306 306 299 290 291 301 301 285 287 292 293 296 296 297 298 298 300 301 296 291 293 294 299 298 297 297 298 292 287 289 293 297 296 295 294 293 291 287
303 303 303 304 306 306 306 305 305 305 305 300 292 285 293 295 294 290 289 290 291 297 296 299 298 300 299 296 297 294 294 298 299 299 299 300 293 291 287 290 294 292 294 294 295 289 290
303 303 303 303 305 305 306 305 305 305 305 299 292 287 293 285 287 289 291 291 289 290 296 299 296 296 296 292 294 292 297 299 300 300 300 300 292 292 292 292 294 294 294 293 293 294 291
303 302 303 303 304 305 306 305 304 304 305 296 289 288 292 292 290 288 290 289 289 291 293 293 294 296 297 294 296 294 297 298 297 298 298 297 293 292 290 292 293 292 293 294 293 293 292
302 302 303 303 304 305 305 304 304 304 304 294 297 295 292 292 289 287 287 290 291 294 295 297 296 296 295 297 300 301 301 301 301 298 295 294 292 289 287 289 290 287 291 293 294 295 296
303 303 303 303 304 305 305 304 303 304 303 298 297 295 290 286 288 287 288 291 292 294 292 296 298 295 299 306 305 303 301 299 299 299 300 293 292 289 286 285 282 294 295 295 295 295 295
302 302 303 303 304 305 304 303 303 303 303 299 298 295 292 285 290 290 290 289 294 296 294 295 299 301 302 301 295 292 292 292 293 296 296 297 291 286 286 286 289 291 293 294 293 294 296
301 302 303 303 303 304 303 303 303 303 303 299 299 298 296 289 288 294 291 291 290 291 292 295 301 304 302 295 290 286 286 290 290 291 294 291 292 292 284 284 283 293 295 296 296 289 296
302 303 303 303 303 303 302 303 303 303 303 299 298 302 297 291 295 295 293 291 295 293 291 294 296 297 301 288 287 286 287 294 289 287 288 288 287 287 283 287 289 294 295 297 289 293 297
303 302 301 302 303 302 302 302 302 303 303 299 296 301 298 292 294 297 297 295 295 294 289 293 294 295 293 287 288 288 287 291 291 291 290 290 287 286 285 286 286 296 293 292 299 297 298
302 302 303 302 302 302 302 302 302 302 302 300 292 299 300 293 295 301 301 301 300 300 296 296 294 295 296 293 291 290 288 287 291 288 293 289 293 291 292 293 299 297 300 299 298 299 298
Wind_Speed
16 16 16 15 14 14 13 15 14 10 10 12 11 13 11 9 9 10 11 11 11 11 12 13 13 14 6 3 8 2 8 13 8 6 5 4 4 3 1 3 2 4 3 3 6 3 4
17 16 17 16 16 15 14 12 10 10 10 11 13 11 10 10 9 11 10 12 11 11 11 11 10 11 1 6 1 5 9 5 6 4 3 4 3 3 2 3 2 3 1 2 2 4 3
19 17 16 15 16 17 16 13 11 11 10 10 12 11 10 9 10 10 11 13 13 12 11 10 6 2 1 15 6 3 2 2 4 4 4 4 2 1 1 3 1 2 2 2 1 3 3
21 19 18 16 15 13 14 17 13 13 10 10 11 12 10 11 9 10 11 13 15 13 13 9 2 2 9 3 3 3 3 4 4 4 2 1 2 1 2 4 4 1 3 2 1 2 1
22 21 20 19 17 14 14 14 14 14 12 9 9 11 12 11 11 10 9 13 16 10 4 4 2 3 10 5 4 5 9 4 5 3 2 1 3 1 1 2 2 3 2 2 0 7 3
25 25 21 21 20 17 15 15 14 13 11 10 9 10 12 10 11 10 8 13 7 1 1 2 3 2 4 2 2 2 5 4 3 5 3 1 3 0 1 2 4 4 3 4 4 3 4
26 25 24 21 20 20 19 17 15 12 12 12 10 9 11 9 10 7 6 4 2 2 3 8 4 3 3 5 1 3 4 6 3 3 3 1 2 5 7 4 1 1 0 4 1 4 2
25 24 24 23 22 21 22 21 16 14 13 11 9 9 10 9 9 2 0 3 2 2 10 12 15 10 6 3 3 5 7 6 4 5 3 2 5 6 3 2 3 3 2 3 3 2 2
28 26 25 25 24 23 21 22 17 15 13 12 10 8 8 8 2 2 3 5 2 4 4 8 7 7 7 10 8 7 10 5 4 6 6 5 3 3 4 2 3 3 3 2 2 2 2
29 28 27 26 25 24 23 21 20 17 15 12 11 10 6 5 2 2 3 1 3 4 3 8 6 8 7 9 5 8 8 6 2 9 8 4 2 5 3 4 6 3 4 4 4 3 2
30 29 29 28 27 25 24 23 21 20 17 14 12 12 8 8 0 2 3 4 3 1 4 2 3 2 5 9 8 6 6 4 9 7 6 5 5 5 4 5 5 5 3 0 2 3 0
32 31 30 30 29 27 24 23 20 21 19 16 14 13 10 2 3 5 4 3 2 2 10 3 6 6 7 4 3 5 5 5 4 5 1 4 1 4 5 4 4 3 2 5 4 2 1
33 32 32 31 30 29 27 25 23 21 21 17 15 14 11 3 4 2 3 0 3 8 4 3 4 5 6 6 5 5 9 6 7 6 5 1 3 2 3 3 2 3 3 1 0 1 3
34 33 33 32 32 30 29 27 24 22 22 19 15 12 10 7 3 1 3 3 12 5 7 4 1 5 7 6 4 3 9 10 2 5 4 6 4 7 5 5 6 5 5 4 3 2 0
35 35 34 33 32 32 31 28 26 23 23 21 14 6 5 5 7 1 3 12 8 6 4 3 1 4 5 4 5 4 7 13 11 8 7 6 4 0 3 3 5 4 4 2 7 2 1
34 35 35 35 33 33 33 30 27 25 22 22 8 6 11 8 8 4 6 20 9 6 1 2 3 4 9 7 5 9 8 6 7 9 5 7 3 2 1 2 4 2 6 3 1 4 3
34 35 35 36 35 34 34 32 29 26 24 24 8 7 7 13 9 6 16 14 17 8 1 1 1 4 4 6 7 6 10 2 7 7 4 5 3 1 2 5 8 4 2 5 3 1 3
34 35 35 36 36 36 35 34 31 28 28 22 8 11 6 15 15 11 18 14 12 17 3 5 1 3 3 4 6 7 11 8 9 13 11 6 5 5 7 1 1 3 6 6 3 4 0
36 35 35 36 37 37 37 37 34 31 34 12 8 7 7 13 15 17 12 18 10 12 10 6 7 4 2 2 3 5 6 4 9 9 10 9 2 3 1 1 2 3 4 4 5 3 7
37 36 36 36 38 38 38 39 37 34 35 12 6 9 7 13 13 18 20 21 23 16 8 4 3 2 1 3 2 1 4 3 7 5 6 9 4 7 9 8 5 4 6 7 5 4 5
39 38 37 36 38 38 39 41 39 37 38 12 6 6 7 13 21 19 21 18 27 13 18 11 5 11 4 5 3 3 1 1 1 6 4 5 7 6 5 5 6 7 6 11 10 7 9
40 37 38 37 38 39 40 42 40 38 40 12 6 6 4 5 22 19 16 18 29 26 13 19 13 9 11 9 7 2 6 4 4 1 5 2 4 5 4 4 7 6 5 8 9 4 9
38 38 40 37 37 39 41 43 40 40 39 8 5 2 8 11 18 16 20 20 19 20 15 8 16 6 6 14 11 5 4 5 4 4 3 3 7 5 5 1 3 3 9 11 6 6 8
35 39 38 37 37 40 43 43 41 42 35 5 3 3 8 9 14 20 13 14 19 25 9 14 13 14 5 1 1 2 1 2 6 6 5 5 5 1 3 1 6 2 2 3 8 5 9
31 34 34 35 35 39 44 42 41 42 43 3 4 3 4 9 12 16 15 22 9 13 16 14 7 5 5 4 3 2 3 4 0 1 5 3 5 4 5 5 4 1 5 8 8 15 9
26 30 30 30 35 42 43 41 40 40 43 4 4 3 2 7 5 9 17 17 14 12 5 6 2 3 6 3 3 3 5 3 4 2 3 4 4 4 4 5 9 6 5 5 4 13 9
24 26 29 26 33 42 41 39 38 38 40 14 2 4 4 1 3 1 9 14 13 6 5 5 8 3 4 2 3 4 4 6 2 5 7 3 2 7 4 4 7 6 4 5 6 10 5
23 27 24 26 40 39 38 35 35 36 35 17 3 5 4 1 4 4 6 5 8 15 8 4 6 4 2 5 4 4 4 6 5 3 5 8 8 5 3 2 7 8 6 10 8 3 5
22 21 27 37 37 35 34 34 35 33 32 14 4 3 5 2 4 2 3 9 5 20 11 11 7 7 8 5 5 3 2 0 6 8 2 6 6 7 10 8 2 11 4 6 5 5 6
Wind_Direction
288 287 288 288 288 287 286 289 302 312 314 312 310 307 283 284 291 295 303 309 309 311 314 324 329 335 349 327 252 50 87 129 135 153 165 172 170 158 213 233 186 220 288 265 284 198 132
275 280 284 282 282 284 281 281 282 290 300 306 301 300 295 295 292 295 301 301 303 302 303 317 327 333 319 282 149 114 126 148 153 149 155 169 209 213 219 239 189 199 217 214 171 140 123
272 268 269 272 274 279 284 278 271 275 285 297 303 301 296 298 294 293 301 299 299 295 294 302 312 1 246 244 117 105 293 205 186 166 161 214 218 162 44 275 323 256 274 116 135 113 90
286 267 268 264 269 271 274 279 273 274 274 288 303 309 310 305 301 298 299 301 296 295 290 276 254 167 249 223 165 264 185 263 205 203 210 178 151 253 224 300 360 201 58 1 41 81 56
279 283 276 258 261 257 268 269 276 279 276 280 297 306 306 303 303 295 299 299 295 301 262 159 232 189 263 316 228 215 177 217 144 146 237 354 118 59 357 75 322 353 130 197 122 198 152
273 273 272 284 256 245 253 258 260 274 271 275 283 295 302 305 298 299 312 287 285 44 156 201 258 284 256 234 285 156 192 184 153 118 109 113 67 124 75 144 225 190 179 218 174 124 214
268 267 271 272 279 257 246 252 249 251 261 262 271 286 288 298 292 320 338 340 332 241 223 220 222 258 274 287 264 237 167 142 120 88 165 18 158 224 223 191 167 166 122 277 145 202 183
255 257 259 265 265 266 258 248 246 242 246 251 255 279 300 310 308 142 283 266 169 219 299 236 245 263 261 88 324 260 144 144 145 177 141 64 235 226 205 192 173 245 158 257 260 23 154
254 251 249 253 261 259 265 252 238 229 238 240 245 258 285 322 310 171 210 231 71 5 271 281 202 218 210 163 202 239 165 148 141 144 182 179 212 122 173 211 218 220 190 200 287 338 226
254 251 247 246 248 252 254 257 240 230 228 230 230 246 245 313 263 164 236 348 309 160 287 262 218 247 168 151 227 195 187 144 125 183 159 233 231 192 184 227 186 239 220 174 205 240 303
252 247 243 241 241 243 248 245 253 229 220 220 223 220 223 194 32 212 155 343 110 229 290 221 176 124 162 186 141 210 174 79 156 160 151 233 169 179 192 216 181 226 180 160 107 88 198
250 247 242 238 235 235 238 241 240 242 214 217 216 207 205 173 195 245 309 332 86 163 247 296 142 167 155 236 159 113 134 64 117 114 1 208 201 185 208 193 198 107 98 46 54 105 205
247 244 243 238 232 229 229 232 233 232 223 209 211 204 179 193 199 129 221 300 174 226 323 220 186 160 188 177 153 143 158 158 156 141 189 251 219 225 185 143 120 111 91 267 157 165 216
246 242 238 235 230 226 222 224 227 224 223 196 206 206 202 194 163 100 154 168 221 198 249 315 166 129 188 152 216 132 140 176 199 116 134 191 259 184 182 197 179 182 196 171 220 198 246
244 241 238 232 228 222 219 215 221 221 205 197 192 207 207 195 212 93 187 206 207 186 218 251 310 144 221 222 173 141 179 194 181 169 164 150 248 193 208 152 159 165 203 133 107 47 282
243 239 236 233 224 219 214 209 211 215 197 186 191 215 212 165 178 184 207 218 215 195 188 39 242 191 182 194 164 177 177 188 190 184 152 195 148 195 137 158 68 185 147 128 35 174 218
243 239 234 230 225 216 210 203 202 204 187 185 170 217 179 159 171 205 211 210 213 266 299 175 287 300 233 175 183 185 190 244 188 169 128 138 132 198 140 201 179 154 200 58 118 150 192
244 240 234 226 221 215 205 198 195 194 181 178 175 214 173 155 187 202 214 189 223 230 164 238 199 243 253 208 177 177 193 218 172 143 161 187 147 172 195 346 212 171 175 161 162 197 343
241 237 233 228 217 211 201 193 189 187 175 166 181 181 168 177 189 202 198 204 208 206 211 192 203 215 321 328 223 193 197 230 160 151 158 174 178 150 321 77 36 220 198 147 107 98 188
239 233 228 225 217 207 198 190 185 184 178 169 175 158 168 209 230 209 183 194 208 206 242 198 196 145 207 320 189 277 221 229 193 187 130 120 138 167 219 219 156 196 195 183 153 159 177
236 228 224 219 213 204 195 185 182 180 175 161 186 180 172 185 208 214 193 180 188 180 211 174 189 214 147 203 296 231 97 85 111 165 149 137 189 176 225 219 186 199 190 176 197 205 193
229 223 217 213 209 199 190 178 180 179 176 184 177 185 164 190 211 212 201 197 190 192 178 208 217 183 202 221 220 119 54 47 251 320 158 187 194 155 195 163 193 222 205 196 212 210 245
228 222 206 204 201 195 184 173 177 177 181 163 192 197 187 193 179 196 214 198 192 174 221 195 203 195 186 229 251 291 234 243 250 164 186 168 139 134 221 158 166 313 206 191 191 192 196
225 201 191 195 191 189 176 170 174 175 179 141 137 131 192 191 176 205 186 215 198 190 171 200 194 205 230 107 178 140 335 275 215 228 166 155 137 84 153 154 221 231 71 181 221 236 223
174 176 182 181 183 185 167 168 175 175 176 130 139 158 161 205 189 198 192 196 196 190 205 179 175 163 129 52 71 217 273 359 329 265 193 168 134 126 154 201 300 216 193 177 182 251 212
167 175 174 172 181 167 161 166 174 175 173 118 160 103 73 174 226 170 181 183 191 189 162 189 197 79 76 109 114 216 188 130 263 157 85 91 56 163 151 175 220 196 214 149 125 279 201
159 161 157 162 181 158 161 166 171 175 177 162 98 103 84 190 293 247 190 183 178 139 153 132 191 147 124 127 137 177 247 152 207 216 173 125 74 185 157 214 281 243 158 148 160 256 201
152 148 151 178 149 152 157 165 169 174 175 166 80 53 157 194 231 6 345 157 155 182 164 170 117 225 93 161 166 188 191 209 155 191 237 173 156 179 109 128 259 153 105 177 208 177 183
147 152 154 143 146 148 157 164 166 165 167 139 105 75 98 26 345 359 277 266 262 171 157 184 185 165 173 167 186 131 184 119 148 225 152 253 199 182 191 202 191 200 200 184 167 159 188